Miami Weather Center

Moon Phase Calendar



Online Cameras

 


      

Current Conditions in Miami Shores
10/20/2020 1:56:04 PM

83°F
Feels Like 86
Clouds
Humidity
74%
Pressure
29.94"
Wind
12.8 mph (ESE)
Dew Point
74°F
UV Index
8/10 (Very High)
Visibility
6 mi

Hourly Forecast

Date & Time Tue, Oct 20
1:00 PM
Tue, Oct 20
2:00 PM
Tue, Oct 20
3:00 PM
Tue, Oct 20
4:00 PM
Tue, Oct 20
5:00 PM
Tue, Oct 20
6:00 PM
Tue, Oct 20
7:00 PM
Tue, Oct 20
8:00 PM
Tue, Oct 20
9:00 PM
Tue, Oct 20
10:00 PM
Tue, Oct 20
11:00 PM
Wed, Oct 21
12:00 AM
Wed, Oct 21
1:00 AM
Wed, Oct 21
2:00 AM
Wed, Oct 21
3:00 AM
Wed, Oct 21
4:00 AM
Wed, Oct 21
5:00 AM
Wed, Oct 21
6:00 AM
Wed, Oct 21
7:00 AM
Wed, Oct 21
8:00 AM
Wed, Oct 21
9:00 AM
Wed, Oct 21
10:00 AM
Wed, Oct 21
11:00 AM
Wed, Oct 21
12:00 PM
Wed, Oct 21
1:00 PM
Wed, Oct 21
2:00 PM
Wed, Oct 21
3:00 PM
Wed, Oct 21
4:00 PM
Wed, Oct 21
5:00 PM
Wed, Oct 21
6:00 PM
Wed, Oct 21
7:00 PM
Wed, Oct 21
8:00 PM
Wed, Oct 21
9:00 PM
Wed, Oct 21
10:00 PM
Wed, Oct 21
11:00 PM
Thu, Oct 22
12:00 AM
Thu, Oct 22
1:00 AM
Thu, Oct 22
2:00 AM
Thu, Oct 22
3:00 AM
Thu, Oct 22
4:00 AM
Thu, Oct 22
5:00 AM
Thu, Oct 22
6:00 AM
Thu, Oct 22
7:00 AM
Thu, Oct 22
8:00 AM
Thu, Oct 22
9:00 AM
Thu, Oct 22
10:00 AM
Thu, Oct 22
11:00 AM
Thu, Oct 22
12:00 PM
Condition
Rain

Clouds

Clouds

Clouds

Rain

Rain

Rain

Rain

Rain

Rain

Rain

Rain

Rain

Rain

Rain

Rain

Rain

Rain

Rain

Rain

Rain

Rain

Rain

Rain

Rain

Rain

Rain

Rain

Rain

Rain

Rain

Rain

Rain

Rain

Rain

Rain

Rain

Rain

Rain

Rain

Rain

Rain

Rain

Rain

Rain

Rain

Rain

Rain
Temperature 83°F83°F83°F83°F82°F82°F81°F81°F81°F81°F81°F81°F81°F81°F80°F79°F80°F80°F79°F79°F79°F78°F78°F79°F79°F79°F78°F77°F78°F79°F79°F79°F79°F80°F80°F80°F80°F80°F80°F80°F80°F80°F80°F80°F81°F82°F83°F83°F
Feels Like 83°F83°F82°F81°F80°F80°F80°F79°F79°F79°F78°F78°F78°F78°F78°F77°F77°F77°F77°F76°F75°F73°F74°F75°F75°F75°F74°F74°F76°F77°F76°F76°F76°F77°F77°F77°F77°F78°F79°F80°F80°F80°F80°F80°F80°F80°F80°F81°F
Cloudiness 90%95%98%99%100%100%100%100%100%100%100%100%100%100%100%100%100%100%100%100%100%100%100%100%100%100%100%100%100%100%100%100%88%92%93%92%85%79%61%60%51%48%46%41%20%21%17%13%
Visibility 6 mi6 mi6 mi6 mi6 mi6 mi6 mi6 mi6 mi6 mi6 mi6 mi6 mi6 mi6 mi6 mi6 mi4 mi6 mi6 mi6 mi5 mi6 mi6 mi6 mi6 mi6 mi6 mi6 mi6 mi6 mi6 mi6 mi6 mi6 mi6 mi6 mi6 mi6 mi6 mi6 mi6 mi6 mi6 mi6 mi6 mi6 mi6 mi
Precipitation 75%85%88%76%100%100%100%100%85%87%90%92%92%100%100%100%100%100%100%100%100%100%100%100%100%100%76%80%80%82%82%82%88%91%91%95%95%95%55%51%53%71%77%81%76%88%92%97%
Humidity 74%71%69%69%70%72%73%73%74%75%75%76%76%76%78%79%78%78%77%77%78%78%76%71%69%68%69%71%71%71%73%75%75%75%75%74%72%71%71%72%72%73%75%73%72%70%68%67%
Dew Point 74°F73°F72°F72°F72°F72°F72°F72°F72°F72°F73°F73°F73°F73°F73°F72°F72°F72°F72°F72°F72°F71°F70°F69°F69°F68°F67°F67°F68°F69°F70°F71°F71°F71°F71°F71°F70°F70°F70°F70°F70°F71°F71°F71°F71°F72°F71°F71°F
Pressure 29.94"29.94"29.88"29.88"29.88"29.88"29.88"29.91"29.91"29.91"29.91"29.91"29.91"29.91"29.88"29.88"29.88"29.88"29.91"29.91"29.94"29.97"29.97"29.97"29.97"29.94"29.91"29.91"29.91"29.91"29.94"29.94"29.97"29.97"29.97"29.94"29.94"29.94"29.94"29.91"29.91"29.91"29.94"29.94"29.94"29.97"29.97"29.97"
Wind Speed 18.4 mph17.6 mph17.8 mph18.2 mph18.6 mph18 mph18.3 mph18.6 mph18.7 mph20 mph20.1 mph20.3 mph20.8 mph20.3 mph20.1 mph19.7 mph19.3 mph19.2 mph19.6 mph20.6 mph22.4 mph23.1 mph21.6 mph20 mph20 mph18.2 mph17.9 mph16.5 mph15.2 mph16 mph18.2 mph19.5 mph19.9 mph19.2 mph19.1 mph18.7 mph17.7 mph15.6 mph14.4 mph14.2 mph14.4 mph13.9 mph14.8 mph15.7 mph17.1 mph18.7 mph18.5 mph18.7 mph
Wind
Direction
86°
E
84°
E
82°
E
80°
E
79°
E
79°
E
80°
E
80°
E
83°
E
82°
E
86°
E
89°
E
86°
E
87°
E
89°
E
88°
E
88°
E
90°
E
92°
E
91°
E
88°
E
84°
E
81°
E
89°
E
95°
E
98°
E
98°
E
99°
E
97°
E
97°
E
95°
E
97°
E
95°
E
98°
E
100°
E
103°
ESE
105°
ESE
103°
ESE
97°
E
95°
E
93°
E
85°
E
85°
E
89°
E
88°
E
89°
E
93°
E
96°
E

Daily Forecast

Date High Low Precip. Humidity
Today
Oct 20

Rain
84 °F
81 °F
100%
71%
Wednesday
Oct 21

Rain
80 °F
78 °F
100%
82%
Thursday
Oct 22

Rain
84 °F
80 °F
79%
65%
Friday
Oct 23

Rain
84 °F
79 °F
69%
61%
Saturday
Oct 24

Rain
84 °F
80 °F
29%
59%
Sunday
Oct 25

Clear
83 °F
79 °F
0%
60%
Monday
Oct 26

Rain
84 °F
80 °F
63%
68%
Tuesday
Oct 27

Rain
85 °F
81 °F
20%
64%
Wednesday
Oct 28

Rain
84 °F
80 °F
34%
64%
Thursday
Oct 29

Rain
85 °F
81 °F
85%
64%
Friday
Oct 30

Rain
85 °F
81 °F
91%
65%
Saturday
Oct 31

Rain
85 °F
81 °F
68%
62%
Sunday
Nov 1

Rain
83 °F
80 °F
98%
67%
Monday
Nov 2

Rain
83 °F
80 °F
95%
68%
Tuesday
Nov 3

Rain
85 °F
80 °F
78%
60%
Wednesday
Nov 4

Clear
84 °F
74 °F
13%
61%


Temperature 8-14 Day Outlook



Precipitation 8-14 Day Outlook




Quick Links
Miami News
Miami Photos
Miami Videos




About Us
Contact Us
Site Map
Search Site
Advertise With Us
   
Miami.USCoast.info
THE MIAMI WEBSITE

Copyright 2020, Coastal Town
Privacy    |    Legal